Location: Errabaliem
(16.8108°N, 80.4255°E)
Time: 08:00:55
(UTC+00:00)

Atlas Centaur 2 - Pass Details

Date: 05 August 2024
Orbit: 457 x 1271 km, 30.4° (Epoch: 10 September)

Event Time Altitude Azimuth Distance (km) Brightness Sun altitude
Exits shadow 21:52:47 22° 154° (SSE) 2,449 4.5 -32.8°
Drops below altitude 10° 21:55:34 10° 143° (SE) 3,244 5.2 -32.2°
Sets 21:58:45 0° 137° (SE) 4,221 5.9 -31.6°
